Weather History for Harlan, IA

Change the Weather History Date:

Tuesday, February 19, 2013

  Actual Average Record
Temperature  
Mean Temperature 14 °F -  
Max Temperature 23 °F 36 °F 59 °F (1981)
Min Temperature 6 °F 18 °F -12 °F (1978)
Degree Days  
Heating Degree Days 50    
Moisture  
Dew Point -2 °F    
Average Humidity 56    
Maximum Humidity 79    
Minimum Humidity 26    
Precipitation  
Precipitation 0.00 in - - ()
Sea Level Pressure  
Sea Level Pressure 30.26 in    
Wind  
Wind Speed 19 mph (NW)    
Max Wind Speed 25 mph    
Max Gust Speed 34 mph    
Visibility 10 miles    
Events      
Averages and records for this station are not official NWS values.
T = Trace of Precipitation, MM = Missing Value Source: NWS Daily Summary

Daily Weather History Graph

Daily Weather History Graph

Search for Another Location

Airport:

Trip Planner

Search our weather history database for the weather conditions in past years. The results will help you decide how hot, cold, wet, or windy it might be!

Date:

Astronomy

Feb. 19, 2013 Rise Set
Actual Time 7:10 AM CST 6:00 PM CST
Civil Twilight 6:42 AM CST 6:28 PM CST
Nautical Twilight 6:10 AM CST 7:00 PM CST
Astronomical Twilight 5:38 AM CST 7:32 PM CST
Moon 12:30 PM CST (2/19) 2:45 AM CST (2/19)
Length of Visible Light 11h 46m
Length of Day
10h 49m
Waxing Gibbous, 67% of the Moon is Illuminated
Feb 19
Waxing Gibbous
Feb 25
Full
Mar 4
Last Quarter
Mar 11
New
Mar 19
First Quarter

Hourly Weather History & Observations

Time (CST) Temp. Windchill Dew Point Humidity Pressure Visibility Wind Dir Wind Speed Gust Speed Precip Events Conditions
12:35 AM 12.2 °F -6.7 °F 6.8 °F 79% 30.08 in 10.0 mi NW 21.9 mph 31.1 mph N/A   Clear
12:55 AM 12.2 °F -6.7 °F 6.8 °F 79% 30.08 in 10.0 mi NW 21.9 mph 29.9 mph N/A   Clear
1:15 AM 12.2 °F -3.7 °F 6.8 °F 79% 30.09 in 10.0 mi NW 15.0 mph 19.6 mph N/A   Clear
1:35 AM 12.2 °F -6.7 °F 3.2 °F 67% 30.10 in 10.0 mi NW 21.9 mph 27.6 mph N/A   Clear
1:55 AM 10.4 °F -10.3 °F 1.4 °F 67% 30.10 in 10.0 mi NW 25.3 mph 34.5 mph N/A   Clear
2:15 AM 10.4 °F -9.1 °F 1.4 °F 67% 30.11 in 10.0 mi NW 21.9 mph 29.9 mph N/A   Clear
2:35 AM 10.4 °F -8.6 °F 1.4 °F 67% 30.12 in 10.0 mi NW 20.7 mph 28.8 mph N/A   Clear
2:55 AM 8.6 °F -11.9 °F 1.4 °F 73% 30.13 in 10.0 mi NW 23.0 mph 28.8 mph N/A   Clear
3:15 AM 8.6 °F -10.5 °F 1.4 °F 73% 30.14 in 10.0 mi NW 19.6 mph 28.8 mph N/A   Scattered Clouds
3:35 AM 10.4 °F -9.9 °F 3.2 °F 73% 30.13 in 10.0 mi NW 24.2 mph - N/A   Overcast
3:55 AM 10.4 °F -9.1 °F 3.2 °F 73% 30.13 in 10.0 mi NW 21.9 mph 33.4 mph N/A   Overcast
4:15 AM 10.4 °F -7.7 °F 3.2 °F 73% 30.13 in 10.0 mi NW 18.4 mph 24.2 mph N/A   Overcast
4:35 AM 10.4 °F -8.6 °F 5.0 °F 79% 30.14 in 10.0 mi NW 20.7 mph 25.3 mph N/A   Overcast
4:55 AM 10.4 °F -7.2 °F 3.2 °F 73% 30.15 in 10.0 mi NW 17.3 mph 27.6 mph N/A   Overcast
5:55 AM 10.4 °F -9.5 °F 3.2 °F 73% 30.18 in 10.0 mi NW 23.0 mph 27.6 mph N/A   Overcast
6:15 AM 8.6 °F -10.0 °F 3.2 °F 79% 30.19 in 7.0 mi NW 18.4 mph 23.0 mph N/A   Overcast
6:35 AM 8.6 °F -11.4 °F 1.4 °F 73% 30.20 in 10.0 mi NW 21.9 mph 27.6 mph N/A   Mostly Cloudy
6:55 AM 8.6 °F -11.0 °F -0.4 °F 67% 30.21 in 10.0 mi NW 20.7 mph 26.5 mph N/A   Scattered Clouds
7:15 AM 8.6 °F -10.0 °F -0.4 °F 67% 30.22 in 10.0 mi NW 18.4 mph 25.3 mph N/A   Scattered Clouds
7:35 AM 8.6 °F -12.3 °F -0.4 °F 67% 30.22 in 10.0 mi NNW 24.2 mph 29.9 mph N/A   Clear
7:55 AM 8.6 °F -11.0 °F -0.4 °F 67% 30.24 in 10.0 mi NNW 20.7 mph - N/A   Clear
8:15 AM 8.6 °F -10.5 °F -0.4 °F 67% 30.25 in 10.0 mi NW 19.6 mph 26.5 mph N/A   Scattered Clouds
8:35 AM 8.6 °F -12.7 °F -2.2 °F 62% 30.27 in 10.0 mi NNW 25.3 mph 28.8 mph N/A   Scattered Clouds
8:55 AM 10.4 °F -10.3 °F -2.2 °F 57% 30.27 in 10.0 mi NW 25.3 mph 31.1 mph N/A   Scattered Clouds
9:15 AM 10.4 °F -9.5 °F -2.2 °F 57% 30.28 in 10.0 mi NW 23.0 mph 33.4 mph N/A   Scattered Clouds
9:35 AM 12.2 °F -6.7 °F -0.4 °F 57% 30.28 in 10.0 mi NW 21.9 mph 32.2 mph N/A   Scattered Clouds
9:55 AM 12.2 °F -5.8 °F -0.4 °F 57% 30.29 in 10.0 mi WNW 19.6 mph 29.9 mph N/A   Scattered Clouds
10:15 AM 12.2 °F -7.5 °F -0.4 °F 57% 30.30 in 10.0 mi NW 24.2 mph 27.6 mph N/A   Clear
10:35 AM 14.0 °F -3.9 °F -0.4 °F 53% 30.31 in 10.0 mi NW 20.7 mph 29.9 mph N/A   Scattered Clouds
10:55 AM 15.8 °F -1.5 °F -0.4 °F 49% 30.30 in 10.0 mi NW 20.7 mph 27.6 mph N/A   Clear
11:15 AM 15.8 °F -2.7 °F -2.2 °F 45% 30.30 in 10.0 mi NW 24.2 mph 28.8 mph N/A   Clear
11:35 AM 17.6 °F -0.3 °F -2.2 °F 42% 30.30 in 10.0 mi NNW 24.2 mph 28.8 mph N/A   Clear
11:55 AM 17.6 °F 0.1 °F -2.2 °F 42% 30.30 in 10.0 mi NNW 23.0 mph 34.5 mph N/A   Clear
12:15 PM 19.4 °F 3.6 °F -2.2 °F 39% 30.30 in 10.0 mi NW 19.6 mph 29.9 mph N/A   Clear
12:35 PM 19.4 °F 2.5 °F -4.0 °F 36% 30.30 in 10.0 mi NW 23.0 mph 29.9 mph N/A   Clear
12:55 PM 19.4 °F 2.8 °F -4.0 °F 36% 30.30 in 10.0 mi NW 21.9 mph 29.9 mph N/A   Clear
1:15 PM 21.2 °F 6.0 °F -7.6 °F 28% 30.30 in 10.0 mi NW 19.6 mph 27.6 mph N/A   Clear
1:35 PM 21.2 °F 4.9 °F -7.6 °F 28% 30.30 in 10.0 mi NW 23.0 mph 32.2 mph N/A   Clear
1:55 PM 21.2 °F 6.4 °F -5.8 °F 30% 30.30 in 10.0 mi NW 18.4 mph - N/A   Clear
2:15 PM 21.2 °F 6.8 °F -7.6 °F 28% 30.30 in 10.0 mi WNW 17.3 mph 31.1 mph N/A   Clear
2:35 PM 23.0 °F 7.6 °F -7.6 °F 26% 30.30 in 10.0 mi NW 21.9 mph 29.9 mph N/A   Clear
2:55 PM 21.2 °F 6.4 °F -7.6 °F 28% 30.30 in 10.0 mi NW 18.4 mph 27.6 mph N/A   Clear
3:15 PM 23.0 °F 8.0 °F -7.6 °F 26% 30.30 in 10.0 mi NW 20.7 mph 27.6 mph N/A   Clear
3:35 PM 21.2 °F 5.2 °F -7.6 °F 28% 30.30 in 10.0 mi NW 21.9 mph 27.6 mph N/A   Clear
3:55 PM 21.2 °F 6.4 °F -7.6 °F 28% 30.30 in 10.0 mi NNW 18.4 mph - N/A   Clear
4:15 PM 21.2 °F 7.8 °F -7.6 °F 28% 30.31 in 10.0 mi NW 15.0 mph 24.2 mph N/A   Clear
4:35 PM 21.2 °F 6.4 °F -7.6 °F 28% 30.31 in 10.0 mi NNW 18.4 mph 23.0 mph N/A   Clear
4:55 PM 21.2 °F 7.8 °F -5.8 °F 30% 30.31 in 10.0 mi NW 15.0 mph 20.7 mph N/A   Clear
5:15 PM 21.2 °F 7.8 °F -5.8 °F 30% 30.31 in 10.0 mi WNW 15.0 mph - N/A   Clear
6:35 PM 12.2 °F 0.7 °F -2.2 °F 53% 30.32 in 10.0 mi NW 8.1 mph - N/A   Clear
6:55 PM 12.2 °F 2.9 °F -2.2 °F 53% 30.32 in 10.0 mi NW 5.8 mph - N/A   Clear
7:15 PM 10.4 °F -1.5 °F -2.2 °F 57% 30.32 in 10.0 mi NW 8.1 mph - N/A   Clear
7:35 PM 8.6 °F -3.7 °F -2.2 °F 62% 30.33 in 10.0 mi NW 8.1 mph - N/A   Clear
7:55 PM 8.6 °F -2.6 °F -2.2 °F 62% 30.33 in 10.0 mi NW 6.9 mph - N/A   Clear
8:15 PM 8.6 °F -3.7 °F -2.2 °F 62% 30.34 in 10.0 mi NW 8.1 mph - N/A   Clear
8:35 PM 8.6 °F -1.3 °F -2.2 °F 62% 30.35 in 10.0 mi NW 5.8 mph - N/A   Clear
8:55 PM 10.4 °F - -2.2 °F 57% 30.35 in 10.0 mi Calm Calm - N/A   Clear
9:15 PM 8.6 °F 0.1 °F -2.2 °F 62% 30.35 in 10.0 mi North 4.6 mph - N/A   Clear
9:55 PM 8.6 °F -2.6 °F -2.2 °F 62% 30.38 in 10.0 mi WNW 6.9 mph - N/A   Clear
10:15 PM 6.8 °F -4.8 °F -2.2 °F 67% 30.38 in 10.0 mi North 6.9 mph - N/A   Clear
10:35 PM 6.8 °F -5.9 °F -2.2 °F 67% 30.38 in 10.0 mi NW 8.1 mph - N/A   Clear
10:55 PM 6.8 °F -3.5 °F -2.2 °F 67% 30.39 in 10.0 mi NNW 5.8 mph - N/A   Clear
11:15 PM 6.8 °F -2.0 °F -2.2 °F 67% 30.39 in 10.0 mi NNW 4.6 mph - N/A   Clear
11:35 PM 6.8 °F -5.9 °F -2.2 °F 67% 30.40 in 10.0 mi North 8.1 mph - N/A   Clear
11:55 PM 6.8 °F -6.9 °F -2.2 °F 67% 30.40 in 10.0 mi North 9.2 mph - N/A   Clear